Regional Weather Roundup
Issued by NWS Raleigh/Durham, NC

Home | Current Version | Previous Version | Text Only | Print | Product List | Glossary On
Versions: 1 2 3 4 5 6 7 8 9 10 11 12 13 14 15 16 17 18 19 20 21 22 23 24 25 26 27 28 29 30 31 32 33 34 35 36 37 38 39 40 41 42 43 44 45 46 47 48 49 50
000
ASUS42 KRAH 271310
RWRRAH
NORTH CAROLINA WEATHER ROUNDUP
NATIONAL WEATHER SERVICE RALEIGH NC
900 AM EDT WED MAY 27 2015

NOTE: "FAIR" INDICATES FEW OR NO CLOUDS BELOW 12,000 FEET WITH NO
SIGNIFICANT WEATHER AND/OR OBSTRUCTIONS TO VISIBILITY.

NCZ001-053-055-056-065-067-271400-
WESTERN NORTH CAROLINA

CITY           SKY/WX    TMP DP  RH WIND       PRES   REMARKS
ASHEVILLE      CLOUDY    62  60  93 SW3       30.30S
JEFFERSON      MOSUNNY   66  54  66 W7        30.32R
MORGANTON      CLOUDY    65  65  97 W5        30.32R
HICKORY        CLOUDY    66  63  90 SW7       30.28R
RUTHERFORDTON  CLOUDY    65  64  97 CALM      30.29R
MOUNT AIRY     CLOUDY    67  64  91 CALM      30.29R
BOONE          SUNNY     64  57  76 W10       30.32S
$$

NCZ021-022-025-041-071-084-088-271400-
CENTRAL NORTH CAROLINA

CITY           SKY/WX    TMP DP  RH WIND       PRES   REMARKS
CHARLOTTE      CLOUDY    68  64  87 SW5       30.28R
GREENSBORO     MOSUNNY   72  64  76 SW9       30.26R
WINSTON-SALEM  PTSUNNY   71  63  75 SW7       30.27R
RALEIGH-DURHAM CLOUDY    73  68  84 SW13      30.28R
FORT BRAGG     CLOUDY    75  69  82 SW9       30.27R
FAYETTEVILLE   CLOUDY    74  70  87 SW12      30.27R
BURLINGTON     MOSUNNY   74  66  76 S6        30.26R
LAURINBURG     PTSUNNY   76  69  79 VRB3      30.28R
$$

NCZ011-015-027-028-043-044-047-080-103-271400-
NORTHEASTERN NORTH CAROLINA

CITY           SKY/WX    TMP DP  RH WIND       PRES   REMARKS
ROCKY MT-WILSO CLOUDY    76  70  82 SW10      30.26R
GREENVILLE     MOSUNNY   77  72  83 S10       30.27R
WASHINGTON     MOSUNNY   74  69  82 S6        30.27S
ELIZABETH CITY PTSUNNY   76  68  76 S10       30.27R
MANTEO         SUNNY     75  66  73 S15       30.29R
CAPE HATTERAS  SUNNY     75  62  64 S10       30.30R
$$

NCZ078-087-090-091-093-098-101-271400-
SOUTHEASTERN NORTH CAROLINA

CITY           SKY/WX    TMP DP  RH WIND       PRES   REMARKS
LUMBERTON      CLOUDY    77  70  79 SW7       30.28R
GOLDSBORO      PTSUNNY   77  72  83 SW9       30.25R
KINSTON        MOSUNNY   79  70  73 S8        30.27R
KENANSVILLE    PTSUNNY   77  69  76 S5        30.29R
NEW BERN       CLOUDY    80  69  69 S9        30.29R
CHERRY POINT   MOSUNNY   79  68  69 SW9       30.28R
BEAUFORT       PTSUNNY   76  67  73 S9        30.28R
JACKSONVILLE   CLOUDY    77  69  76 S7        30.27R
WILMINGTON     MOSUNNY   79  67  66 S6        30.28R
$$



USA.gov is the U.S. government's official web portal to all federal, state and local government web resources and services.